Showing default

NEXTSAT-1, 43811

Orbit data source: Space-Track

NEXTSAT-1, 43811 is a payload satellite owned by KAIST (KR) in SSO that was launched on Mon, 03 Dec 2018 UTC via an FALCON 9 launch vehicle from the Air Force Western Test Range (AFWTR). Payload-class satellites include a variety of spacecraft equipped with specific instruments for various scientific and technological missions. These include communications satellites like Starlink; space stations such as the ISS; scientific satellites like the Hubble; Earth observation satellites from companies like Planet Labs, Umbra, and HawkEye 360; GPS; miniature CubeSats for education and research; and military/defense satellites.

Loading next visibility...
Identifier
43811, 2018-099BF
Orbit
SSO
Country
Flag of KRKR / SKOR
Related business
Manufacturer
SatRec Initiative
Mission
Operational Civil Ast/Tech
Bus & Motor
NEXTSAT, Unknown motor
Mass
~100 kg wet, ~100 kg dry
Launch date (UTC)
2018-12-03 (8 years ago)
Launch vehicle
FALCON 9
Launch site
Air Force Western Test Range (AFWTR)
Object type
Payload
Rocket body
Debris
Shape & HBR
Box + Cyl + 1 Pan, 1.0 m
Radar Cross Section
0.908 m², Medium (>0.1 m² and < 1m²)

Expand to show TLE details & history
Last TLE update: 1 week ago

TLE from 1 week ago
0 NEXTSAT-1
1 43811U 18099BF  26155.12589030  .00003861  00000-0  25069-3 0  9994
2 43811  97.4070 198.3000 0012824  29.1890 331.0053 15.08553939409919
Epoch: 2026-06-04T03:01Z
TLE epoch observation values (Epoch: 2026-06-04T03:01:16.921Z)
Latitude
-0.00005°
Longitude
-99.59513°
Altitude
535.933 km
Speed
7.599 km/s
True Right ascension
13h 13m 12s
True Declination
0° 00' 00"
Sunlit
Object was in full shadow at epoch
Visualization orbit readout
Latitude
Unknown
Longitude
Unknown
Altitude
Unknown
Speed
Unknown
Apparent Right ascension
Unknown
Apparent Declination
Unknown
Sunlit
N/A
Visualization observer readout
Local Sidereal Time
03:03:38
Azimuth
Unknown
Elevation
Unknown
Doppler factor
Unknown
Orbital elements
Apogee altitude
546.468 km
Perigee altitude
528.73 km
Semi-major axis
6,915.736 km
Eccentricity
0.00128
Inclination
97.407°
RAAN
198.3°
Arg. of periapsis
29.189°
True anomaly
330.93397°
Mean anomaly
331.0053°
Eccentric anomaly
330.96964°
Mean motion
3.77386 °/min
Orbital period
95.39 mins
BSTAR
0.00025069
Loading maneuver chart data...
Computing Atmospheric mass density...
Loading historical data...
Loading historical data...
Loading historical data...
Loading historical data...
Loading historical data...
Loading historical data...
Loading historical data...

Documentation

Showing up to 5 results
|